Regional Weather Roundup
Issued by NWS Green Bay, WI

Home | Current Version | Previous Version | Text Only | Print | Product List | Glossary On
Versions: 1 2 3 4 5 6 7 8 9 10 11 12 13 14 15 16 17 18 19 20 21 22 23 24 25 26 27 28 29 30 31 32 33 34 35 36 37 38 39 40 41 42 43 44 45 46 47 48 49 50
497
ASUS43 KGRB 270211
RWRGRB

NORTH-CENTRAL AND NORTHEAST WISCONSIN REGIONAL WEATHER ROUNDUP
NATIONAL WEATHER SERVICE GREEN BAY WI
900 PM CDT TUE JUL 26 2016

WIZ005-009-010>012-018-019-270300-
NORTH CENTRAL WISCONSIN

CITY           SKY/WX    TMP DP  RH WIND       PRES   REMARKS
IRONWOOD       PTCLDY    72  68  88 W3        29.94R
MANITOWISH WTR CLOUDY    67  67 100 CALM      30.00R
ARBOR VITAE    CLOUDY    72  64  77 CALM      30.00R
EAGLE RIVER    HVY RAIN  67  61  79 W7        30.01R
LAND O LAKES   CLOUDY    65  64  96 CALM      30.01R
RHINELANDER    CLEAR     74  65  73 W3        30.00R
PHILLIPS       CLOUDY    75  68  78 CALM      29.99R
ANTIGO         CLEAR     75  66  75 CALM      30.00R
TOMAHAWK       CLEAR     73  63  71 CALM      30.00R
MERRILL        CLEAR     75  67  76 W3        29.99R
$$

WIZ013-073-270300-
NORTHEAST WISCONSIN

CITY           SKY/WX    TMP DP  RH WIND       PRES   REMARKS
IRON MOUNTAIN  MOCLDY    79  63  57 NW12      29.96R
MARINETTE      PTCLDY   N/A N/A N/A SW6       29.94R
OCONTO         CLEAR     77  71  82 SW5       29.94R
$$

WIZ017-030-035>037-045-270300-
CENTRAL WISCONSIN

CITY           SKY/WX    TMP DP  RH WIND       PRES   REMARKS
MEDFORD        CLEAR     73  67  83 SW3       30.00R
WAUSAU         CLEAR     78  66  66 SW7       29.97R
MOSINEE        CLEAR     73  66  78 SW6       30.00S
MARSHFIELD     CLEAR     75  66  73 SW6       30.00R
WISC RAPIDS    CLEAR     77  66  68 SW3       30.00R
STEVENS POINT  CLEAR     78  65  65 SW5       30.00R
WAUPACA        CLEAR     79  68  68 SW5       29.98R
SHAWANO        CLEAR     80  66  61 CALM      29.96S
CLINTONVILLE   CLEAR     77  66  69 SW3       29.97R
WAUTOMA        CLEAR     77  68  73 S3        29.99S
$$

WIZ038-039-048-051-270300-
FOX VALLEY

CITY           SKY/WX    TMP DP  RH WIND       PRES   REMARKS
NWS GREEN BAY  CLEAR     76  70  82 S5        29.97R
APPLETON       PTCLDY    75  64  69 SW6       29.97S
OSHKOSH        CLEAR     78  67  68 VRB5      29.99R
FOND DU LAC    CLEAR     75  67  76 SW5       30.00R
$$

WIZ022-050-052-270300-
EAST CENTRAL WISCONSIN

CITY           SKY/WX    TMP DP  RH WIND       PRES   REMARKS
EPHRAIM        FAIR      79  67  66 SW6       29.93S
WASHINGTON ISL NOT AVBL
STURGEON BAY   CLEAR     78  68  71 S7        29.96R
MANITOWOC      CLEAR     72  62  71 CALM      29.98S
SHEBOYGAN      LGT RAIN  73  63  70 S5        30.00R
$$

LMZ563-521-522-541>543-270300-
LAKESHORE

STATION/POSITION TIME  TEMP    WIND        PRES    VSBY  WAVE
                       AIR SEA DIR/SP/G                  HT/PER
                 (UTC) (F)     (DEG/KT/KT) (MB)    (MI)  (FT/S)
SHEBOYGAN LKSHOR 0200   75     210/  7/  8 1015.6R
KEWAUNEE LKSHORE 0100   64                   N/A
ALGOMA MARINA    0113          230/ 12/ 14   N/A
NORTHPORT PIER   0100   80     170/  3/  7 1012.9F
N MID LAKE BUOY  0150   72 70  210/ 16/ 17 1012.4R         3/ 4
S GREEN BAY BUOY 0100   79 75  210/ 10/ 12   N/A
SISTER BAY LKSHO 0121   82     220/ 14/ 17   N/A
CHAMBERS ISLAND  0100   80     190/  6/ 12 1012.9S
MENOMINEE LKSHOR 0100   82                   N/A
$$




USA.gov is the U.S. government's official web portal to all federal, state and local government web resources and services.